"2022-01-09 00:01:00",2756830,0.454,29.26933,6.687139,0.07069182,0.56,0,0.438,29.31855,9.00171,0.04819404,0.53,0,-999,0,4.9,96.7,4.969,4.994,0.6,0.064,0,6.308,13.58,0.763,98.94633,3.32,3.32,3.32,100,0,0.03,0.026,230.5,119.5,119.3
"2022-01-09 00:02:00",2756831,0.4173333,38.01685,11.31801,0.09732877,0.64,0,0.4979999,15.25277,6.139066,0.04763751,0.6,0,-999,0,4.9,96.1,4.959,4.976,0.625,0.069,0,6.305,13.58,0.7,98.94691,3.32,3.32,3.32,100,0,0.02,0.024,230.6,119.5,119.3
"2022-01-09 00:03:00",2756832,0.368,86.2889,42.52106,0.08960654,0.55,0,0.3286667,45.58804,15.16261,0.06227538,0.45,0,-999,0,4.9,96.1,4.947,4.968,0.696,0.201,0,6.293,13.57,1.075,98.96546,3.321,3.321,3.32,100,0,0.06,0.056,230.6,119.6,119.4
"2022-01-09 00:04:00",2756833,0.5600001,119.9606,11.84161,0.1206096,0.76,0,0.3173333,86.54763,15.64665,0.07352701,0.49,0,-999,0,4.9,96.4,4.941,4.967,0.925,0.06,0,6.287,13.58,1.075,98.9651,3.32,3.321,3.32,100,0,0.05,0.048,230.7,119.6,119.4
"2022-01-09 00:05:00",2756834,0.722,149.5518,11.01496,0.07323023,0.85,0,0.538,139.1348,12.05165,0.08975522,0.7,0,-999,0,4.9,96.3,4.951,4.971,1.029,0.062,0,6.287,13.58,1.138,98.96182,3.32,3.321,3.32,100,0,0.03,0.03,230.7,119.7,119.5
"2022-01-09 00:06:00",2756835,0.9446668,154.727,10.86701,0.1550856,1.19,0,0.7313334,146.5562,13.00222,0.2233045,1.2,0,-999,0,4.9,95.5,4.953,4.982,1.554,0.173,0,6.287,13.58,1.763,98.95583,3.321,3.321,3.32,100,0,0.03,0.036,230.7,119.7,119.5
"2022-01-09 00:07:00",2756836,1.327333,152.5237,9.380147,0.1150922,1.5,0,0.82,142.2297,10.2584,0.2731543,1.32,0,-999,0,4.9,95.1,4.953,4.978,1.179,0.099,0,6.287,13.58,1.388,98.96711,3.32,3.321,3.32,100,0,0.06,0.057,230.8,119.7,119.6
"2022-01-09 00:08:00",2756837,1.548,147.3271,6.339111,0.1400571,1.83,0,1.008,130.8005,6.122585,0.1553577,1.35,0,-999,0,4.9,94.6,4.97,4.995,1.213,0.197,0,6.287,13.57,1.45,98.96687,3.32,3.321,3.32,100,0,0.02,0.025,230.8,119.7,119.6
"2022-01-09 00:09:00",2756838,1.425333,147.0691,6.812449,0.1148255,1.64,0,1.108667,133.7397,6.13347,0.2170059,1.4,0,-999,0,4.9,94.7,4.99,5.023,1.658,0.192,0,6.272,13.58,1.888,98.96546,3.32,3.32,3.32,100,0,0.05,0.043,230.9,119.8,119.6
"2022-01-09 00:10:00",2756839,1.509333,149.0068,7.378853,0.1965525,1.98,0,1.114667,146.0565,6.780922,0.1746946,1.48,0,-999,0,4.9,95,5.001,5.045,1.667,0.146,0,6.266,13.57,1.888,98.96675,3.32,3.321,3.32,100,0,0.02,0.027,230.9,119.8,119.7
"2022-01-09 00:11:00",2756840,1.387333,142.6034,4.854143,0.1134,1.69,0,1.484667,152.203,5.466379,0.1253192,1.65,0,-999,0,4.9,95.1,5.001,5.047,1.892,0.156,0,6.265,13.59,2.138,98.94786,3.32,3.32,3.32,100,0,0.03,0.022,230.9,119.8,119.7
"2022-01-09 00:12:00",2756841,1.415333,148.795,6.165501,0.1155778,1.65,0,1.138,148.066,4.725082,0.1403899,1.36,0,-999,0,4.9,95.7,4.981,5.032,1.763,0.188,0,6.265,13.57,2.013,98.95219,3.32,3.32,3.32,100,0,0.04,0.047,230.9,119.9,119.7
"2022-01-09 00:13:00",2756842,1.377333,156.2647,5.553572,0.1081028,1.52,0,1.133333,151.6668,4.157642,0.09910712,1.3,0,-999,0,4.9,95.7,4.973,5.005,1.642,0.176,0,6.265,13.56,1.95,98.95795,3.32,3.32,3.32,100,0,0.03,0.024,231,119.9,119.7
"2022-01-09 00:14:00",2756843,1.724667,152.868,5.325594,0.1842776,2.05,0,1.065333,156.389,9.320698,0.1535737,1.35,0,-999,0,4.9,95.7,4.969,4.996,1.413,0.088,0,6.265,13.57,1.575,98.9664,3.32,3.32,3.32,100,0,0.02,0.025,231,119.9,119.8
"2022-01-09 00:15:00",2756844,1.476667,158.6105,6.048638,0.1379693,1.85,0,1.160667,164.8911,7.565615,0.2425549,1.62,0,-999,0,4.9,95.2,4.965,5.003,1.854,0.204,0,6.265,13.57,2.138,98.96687,3.32,3.32,3.32,100,0,0.04,0.034,231,119.9,119.8
"2022-01-09 00:16:00",2756845,1.393333,157.7339,3.6774,0.12202,1.67,0,1.093333,168.6024,7.593193,0.1010391,1.26,0,-999,0,4.9,95.6,4.967,4.996,1.454,0.13,0,6.265,13.57,1.763,98.9678,3.32,3.32,3.32,100,0,0.02,0.024,231.1,120,119.8
"2022-01-09 00:17:00",2756846,1.182,161.5355,3.737771,0.1023198,1.37,0,0.8993334,176.3334,5.372353,0.09175813,1.03,0,-999,0,4.9,96.4,4.961,4.991,1.454,0.115,0,6.263,13.59,1.638,98.95818,3.32,3.32,3.32,100,0,0.03,0.032,231.1,120,119.9
"2022-01-09 00:18:00",2756847,1.15,167.2023,4.635112,0.09514897,1.38,0,0.802,177.7931,5.724648,0.1077157,0.93,0,-999,0,4.887,97,4.941,4.982,1.438,0.08,0,6.251,13.58,1.575,98.95853,3.32,3.32,3.32,100,0,0.03,0.028,231.1,120,119.9
"2022-01-09 00:19:00",2756848,1.093333,173.474,4.783571,0.09067646,1.29,0,0.7833334,185.0014,2.988193,0.04908044,0.89,0,-999,0,4.84,97.4,4.94,4.971,1.513,0.112,0,6.247,13.59,1.763,98.9691,3.32,3.32,3.32,100,0,0.02,0.024,231.1,120.1,119.9
"2022-01-09 00:20:00",2756849,1.124,175.1311,4.542815,0.05225578,1.21,0,0.8246667,187.6007,3.115242,0.05018189,0.91,0,-999,0,4.813,97.6,4.932,4.969,1.513,0.097,0,6.242,13.58,1.7,98.97343,3.321,3.321,3.32,100,0,0.05,0.045,231.2,120.1,120
"2022-01-09 00:21:00",2756850,1.153333,174.467,4.062623,0.06446361,1.32,0,0.88,185.9342,3.212762,0.06501282,0.98,0,-999,0,4.8,97.2,4.908,4.969,1.321,0.066,0,6.242,13.58,1.45,98.97849,3.321,3.321,3.32,100,0,0,0.004,231.2,120.2,120
"2022-01-09 00:22:00",2756851,1.099333,174.8649,4.159461,0.04864383,1.2,0,0.7260001,182.7323,4.890639,0.1260053,1.03,0,-999,0,4.8,96.8,4.9,4.967,1.35,0.078,0,6.242,13.58,1.45,98.9752,3.321,3.321,3.32,100,0,0.05,0.051,231.2,120.2,120
"2022-01-09 00:23:00",2756852,0.9319999,177.4662,2.848235,0.06400001,1.09,0,0.518,180.9038,12.33605,0.07984985,0.64,0,-999,0,4.8,96.5,4.896,4.962,1.213,0.034,0,6.242,13.58,1.263,98.96863,3.32,3.321,3.32,100,0,0.03,0.025,231.3,120.2,120
"2022-01-09 00:24:00",2756853,0.8013334,177.5359,3.737903,0.05389702,0.9,0,0.5393333,179.0101,8.835632,0.09219305,0.73,0,-999,0,4.8,96.4,4.894,4.958,1.196,0.07,0,6.242,13.58,1.325,98.96828,3.32,3.321,3.32,100,0,0.04,0.046,231.3,120.3,120.1
"2022-01-09 00:25:00",2756854,0.832,185.7252,6.209064,0.07917912,0.96,0,0.3413333,203.093,12.97616,0.0778774,0.51,0,-999,0,4.8,96.8,4.885,4.96,1.142,0.053,0,6.242,13.59,1.263,98.97343,3.32,3.321,3.32,100,0,0.04,0.031,231.3,120.3,120.1
"2022-01-09 00:26:00",2756855,0.7699999,194.8665,1.745894,0.028519,0.8,0,0.304,219.3136,14.0603,0.07059745,0.44,0,-999,0,4.8,97.4,4.894,4.951,1.138,0.023,0,6.234,13.58,1.2,98.984,3.321,3.321,3.321,100,0,0.04,0.047,231.4,120.3,120.2
"2022-01-09 00:27:00",2756856,0.9046667,196.467,3.073675,0.09265468,1.08,0,0.438,213.6194,8.712803,0.07404503,0.6,0,-999,0,4.8,97.4,4.891,4.949,1.142,0.053,0,6.223,13.58,1.263,98.99163,3.322,3.322,3.321,100,0,0.03,0.029,231.4,120.4,120.2
"2022-01-09 00:28:00",2756857,1.148,197.5337,2.186655,0.06305553,1.25,0,0.666,211.8017,3.036711,0.06332982,0.81,0,-999,0,4.8,96.7,4.891,4.944,1.388,0.082,0,6.222,13.57,1.513,98.98811,3.321,3.322,3.321,100,0,0.04,0.038,231.5,120.4,120.2
"2022-01-09 00:29:00",2756858,1.296667,196.3322,3.003114,0.1321951,1.5,0,0.8613333,208.74,5.022563,0.1405639,1.13,0,-999,0,4.8,95.7,4.883,4.933,1.583,0.099,0,6.222,13.57,1.763,98.99151,3.321,3.321,3.321,100,0,0.03,0.027,231.5,120.4,120.3
"2022-01-09 00:30:00",2756859,1.794667,189.5333,1.586315,0.1791039,2.07,0,1.366667,196.9998,2.707873,0.1813162,1.7,0,-999,0,4.8,95.5,4.882,4.919,1.933,0.149,0,6.222,13.57,2.2,98.98506,3.321,3.321,3.32,100,0,0.05,0.056,231.5,120.5,120.3
"2022-01-09 00:31:00",2756860,2.344666,186.2667,0.9976384,0.1400889,2.57,0,1.906667,190.0667,2.379449,0.1771503,2.19,0,-999,0,4.8,95.2,4.882,4.913,2.438,0.146,0,6.222,13.58,2.638,98.97884,3.321,3.321,3.321,100,0,0.03,0.025,231.6,120.6,120.4
"2022-01-09 00:32:00",2756861,2.638667,187.1999,1.868961,0.03480746,2.71,0,2.229333,187.9346,2.861794,0.1159578,2.41,0,-999,0,4.8,94.5,4.881,4.91,2.758,0.066,0,6.222,13.58,2.888,98.98341,3.321,3.321,3.32,100,0,0.05,0.049,231.6,120.7,120.4
"2022-01-09 00:33:00",2756862,2.766,190.8,0.9092734,0.05724794,2.87,0,2.192,188.0665,2.174438,0.1245365,2.48,0,-999,0,4.8,94.5,4.882,4.91,2.967,0.066,0,6.222,13.57,3.075,98.9874,3.321,3.321,3.32,100,0,0.02,0.024,231.6,120.7,120.4
"2022-01-09 00:34:00",2756863,2.874,195.1334,1.2578,0.03647835,2.92,0,1.914,193.5314,4.127654,0.2019835,2.27,0,-999,0,4.8,95.3,4.882,4.91,3.133,0.048,0,6.222,13.58,3.2,98.97262,3.32,3.321,3.32,100,0,0.05,0.048,231.7,120.8,120.5
"2022-01-09 00:35:00",2756864,2.812,192.8002,2.071811,0.05281414,2.91,0,1.806,188.8008,4.846437,0.2233921,2.16,0,-999,0,4.8,95.9,4.882,4.91,3.033,0.093,0,6.222,13.57,3.2,98.97837,3.32,3.321,3.32,100,0,0.03,0.034,231.7,120.8,120.5
"2022-01-09 00:36:00",2756865,2.568667,195.666,3.197006,0.1327085,2.74,0,1.551334,197.3331,6.148832,0.1938338,1.89,0,-999,0,4.8,96.5,4.881,4.91,2.913,0.044,0,6.22,13.58,2.95,98.99034,3.321,3.321,3.32,100,0,0.09,0.086,231.8,120.9,120.6
"2022-01-09 00:37:00",2756866,2.678,203.3998,2.184639,0.08344258,2.84,0,1.840667,207.2663,3.108058,0.2618006,2.26,0,-999,0,4.8,96.4,4.882,4.922,2.888,0.065,0,6.21,13.58,3.013,98.9955,3.322,3.322,3.321,100,0,0.08,0.085,231.9,120.9,120.7
"2022-01-09 00:38:00",2756867,2.762,205.2667,2.015219,0.1363427,2.98,0,1.746667,208.1388,5.558199,0.1562334,1.95,0,-999,0,4.8,96,4.882,4.958,3.075,0.082,0,6.219,13.56,3.2,98.99491,3.321,3.322,3.321,100,0,0.06,0.057,231.9,121,120.7
"2022-01-09 00:39:00",2756868,3.11,207.4,1.306349,0.08469556,3.21,0,1.922,208.5357,4.853535,0.2531719,2.36,0,-999,0,4.8,95.6,4.883,4.967,3.142,0.098,0,6.204,13.57,3.263,98.98823,3.321,3.321,3.32,100,0,0.06,0.056,232,121,120.8
"2022-01-09 00:40:00",2756869,3.232667,211.0673,3.234086,0.0607142,3.34,0,2.119334,214.4016,4.585304,0.1261463,2.39,0,-999,0,4.8,95.3,4.883,4.967,3.154,0.098,0,6.199,13.57,3.325,98.99233,3.321,3.321,3.32,100,0,0.05,0.053,232.1,121.1,120.8
"2022-01-09 00:41:00",2756870,3.092,215.3334,1.398405,0.1318686,3.34,0,2.174,216.737,4.00545,0.176967,2.47,0,-999,0,4.8,95,4.89,4.968,3.263,0.168,0,6.199,13.57,3.575,99.00043,3.32,3.321,3.32,100,0,0.03,0.026,232.1,121.1,120.9
"2022-01-09 00:42:00",2756871,2.705333,216.7375,4.325806,0.1828247,2.98,0,2.010667,221.8004,4.547052,0.214055,2.48,0,-999,0,4.8,95.2,4.882,4.968,3.283,0.054,0,6.199,13.57,3.45,99.00056,3.321,3.321,3.32,100,0,0.05,0.052,232.1,121.2,120.9
"2022-01-09 00:43:00",2756872,2.827333,224.3334,2.240718,0.1250315,3.02,0,1.809333,225.0011,3.75843,0.1814926,2.1,0,-999,0,4.8,95.6,4.885,4.968,3.029,0.196,0,6.199,13.57,3.388,99.00196,3.321,3.321,3.32,100,0,0.05,0.05,232.2,121.2,121
"2022-01-09 00:44:00",2756873,2.412667,234.3971,4.141999,0.1066125,2.62,0,1.732667,241.0032,6.341852,0.1696061,2.08,0,-999,0,4.8,96,4.891,4.969,2.488,0.246,0,6.199,13.57,2.763,99.00196,3.321,3.321,3.32,100,0,0.06,0.058,232.2,121.3,121
"2022-01-09 00:45:00",2756874,1.88,246.5133,8.838779,0.1458309,2.32,0,1.366667,257.9148,12.87516,0.2548376,1.71,0,-999,0,4.8,96.9,4.914,4.972,2.058,0.12,0,6.199,13.58,2.325,99.00066,3.321,3.321,3.321,100,0,0.05,0.055,232.3,121.4,121.1
"2022-01-09 00:46:00",2756875,2.115333,267.0653,5.245763,0.1505487,2.34,0,1.782667,283.336,4.739751,0.2293896,2.16,0,-999,0,4.813,98.5,4.935,4.981,2.113,0.107,0,6.199,13.59,2.263,98.99715,3.321,3.321,3.321,100,0,0.08,0.078,232.4,121.4,121.1
"2022-01-09 00:47:00",2756876,2.068667,274.7294,5.167115,0.1692283,2.35,0,1.876667,291.5951,4.157665,0.1359739,2.07,0,-999,0,4.847,98.5,4.923,4.988,2.204,0.106,0,6.199,13.58,2.325,99.01498,3.322,3.322,3.321,100,0,0.06,0.066,232.4,121.5,121.2
"2022-01-09 00:48:00",2756877,2.606,267.9925,7.401004,0.4463302,3.2,0,1.965333,273.9724,12.82042,0.2612244,2.41,0,-999,0,4.873,97.7,4.94,4.99,3.046,0.494,0,6.199,13.58,4.325,99.02332,3.322,3.322,3.322,100,0,0.04,0.035,232.5,121.6,121.3
"2022-01-09 00:49:00",2756878,5.372667,262.8311,10.91436,1.393047,8,0,4.094,273.0236,15.47945,1.357192,5.9,0,-999,0,4.893,96.6,5.011,5.035,5.329,0.933,0,6.192,13.57,7.075,99.02402,3.321,3.322,3.321,100,0,0.08,0.082,232.6,121.7,121.3
"2022-01-09 00:50:00",2756879,3.873333,272.6436,15.88449,0.8942011,6.06,0,3.648,264.1276,15.94715,0.7056646,4.95,0,-999,0,5.067,94.8,5.282,5.271,4.479,0.692,0,6.186,13.58,5.575,99.01546,3.321,3.322,3.321,100,0,0.06,0.057,232.6,121.7,121.4
"2022-01-09 00:51:00",2756880,4.036667,248.2679,15.41577,0.8846971,5.96,0,2.584666,244.9843,12.9455,0.7871965,4.16,0,-999,0,5.167,94.9,5.243,5.307,3.2,0.529,0,6.183,13.57,4.2,99.01604,3.321,3.321,3.321,100,0,0.06,0.063,232.7,121.8,121.4
"2022-01-09 00:52:00",2756881,4.201334,266.5645,15.38118,1.089109,6.79,0,3.538,270.0614,13.88327,1.336339,5.84,0,-999,0,5.1,95.3,5.197,5.233,5.512,1.136,0,6.189,13.57,6.888,99.00865,3.32,3.321,3.32,100,0,0.06,0.056,232.7,121.8,121.5
"2022-01-09 00:53:00",2756882,6.952667,291.1422,6.797424,0.9736355,8.9,0,4.88,290.7106,7.030795,0.6201076,6.26,0,-999,0,5.173,95.3,5.333,5.34,6.792,1.246,0,6.196,13.56,9.14,99.00196,3.32,3.321,3.32,100,0,0.06,0.063,232.8,121.9,121.6
"2022-01-09 00:54:00",2756883,5.704,295.184,6.168509,0.821298,7.79,0,4.191333,297.3246,7.529687,0.6900422,6.01,0,-999,0,5.293,94.5,5.417,5.425,6.929,1.112,0,6.199,13.57,8.58,99.01322,3.32,3.32,3.32,100,0,0.11,0.111,232.9,122,121.7
"2022-01-09 00:55:00",2756884,4.653999,307.1252,7.297158,0.4312432,5.49,0,4.148,307.7456,6.780251,0.666015,5.53,0,-999,0,5.3,94.1,5.43,5.433,6.779,0.649,0,6.199,13.57,7.888,99.01651,3.32,3.32,3.32,100,0.107,0.07,0.059,233,122.1,121.7
"2022-01-09 00:56:00",2756885,4.928,304.2703,5.598609,0.5205663,5.88,0,5.081333,300.8757,5.662819,0.7807763,6.32,0,-999,0,5.34,93.7,5.458,5.436,7.079,0.6,0,6.199,13.57,8.33,99.01991,3.319,3.32,3.319,100,0,0.06,0.067,233,122.1,121.8
"2022-01-09 00:57:00",2756886,6.402,302.9737,9.887344,1.097313,8.28,0,5.256666,309.1777,6.434913,0.9535524,7.41,0,-999,0,5.4,93.5,5.527,5.477,6.971,1.025,0,6.199,13.57,8.95,99.02202,3.318,3.319,3.318,100,0,0.05,0.054,233.1,122.2,121.9
"2022-01-09 00:58:00",2756887,8.016001,312.3305,5.246608,1.679269,10.72,0,7.004,314.4012,4.657053,1.007186,8.95,0,-999,0,5.493,92.8,5.641,5.557,8.47,0.964,0,6.217,13.55,10.08,99.02261,3.317,3.318,3.317,100,0.105,0.07,0.059,233.1,122.3,121.9
"2022-01-09 00:59:00",2756888,8.080667,314.0002,3.558732,0.8228767,9.27,0,7.261334,307.7373,7.517959,0.9963992,9.19,0,-999,0,5.56,92,5.73,5.589,9.32,0.672,0,6.222,13.57,10.45,99.0219,3.317,3.318,3.317,100,0,0.08,0.054,233.2,122.4,122
"2022-01-09 01:00:00",2756889,8.452001,313.7297,5.649769,0.4475295,9.42,0,6.767334,313.7331,3.548296,0.6586701,8.08,0,-999,0,5.6,92.3,5.782,5.624,7.712,0.755,0,6.222,13.55,9.08,99.02883,3.317,3.317,3.316,100,0.134,0.07,0.103,233.3,122.5,122.1
"2022-01-09 01:01:00",2756890,7.444,309.4673,3.17963,0.6478148,8.67,0,6.373334,310.8681,3.8442,0.6860384,7.49,0,-999,0,5.673,92.6,5.822,5.663,7.233,0.955,0,6.222,13.56,9.08,99.02296,3.316,3.316,3.316,100,0,0.07,0.074,233.4,122.5,122.2
"2022-01-09 01:02:00",2756891,6.652,312.3333,3.875022,0.4767837,7.55,0,5.785333,312.1321,3.073069,0.59727,6.72,0,-999,0,5.7,92.6,5.879,5.709,7.617,0.759,0,6.231,13.57,8.76,99.01885,3.315,3.316,3.314,100,0.1,0.1,0.064,233.4,122.7,122.2
"2022-01-09 01:03:00",2756892,6.984666,311.9867,7.059145,0.9204627,8.43,0,5.497333,309.9737,7.220298,1.289369,9.09,0,-999,0,5.7,92.7,5.882,5.705,7.583,0.797,0,6.242,13.56,9.39,99.02848,3.314,3.315,3.314,100,0,0.08,0.114,233.6,122.7,122.3
"2022-01-09 01:04:00",2756893,7.163332,314.9302,3.412877,0.8215324,8.7,0,6.068667,317.5995,3.825567,1.091335,8.55,0,-999,0,5.753,92.8,5.95,5.75,7.492,0.508,0,6.247,13.55,8.39,99.03611,3.314,3.314,3.314,100,0,0.06,0.063,233.6,122.8,122.4
"2022-01-09 01:05:00",2756894,6.837334,309.933,2.791692,0.8318291,8.32,0,4.919333,310.1299,5.003781,0.7119126,6.3,0,-999,0,5.8,92.4,5.957,5.773,6.75,0.665,0,6.265,13.56,7.888,99.03716,3.312,3.314,3.312,100,0.105,0.12,0.107,233.7,122.9,122.5
"2022-01-09 01:06:00",2756895,6.800001,309.4792,8.397241,0.9907976,9.19,0,5.111333,312.8055,10.8893,0.7354896,6.92,0,-999,0,5.8,93,5.957,5.772,8.05,1.037,0,6.266,13.56,9.64,99.04667,3.311,3.312,3.311,100,0,0.07,0.059,233.8,123,122.6
"2022-01-09 01:07:00",2756896,8.016666,304.8542,10.1953,1.202684,9.77,0,7.684001,308.9306,11.26437,2.107026,12.25,0,-999,0,5.8,93.4,5.974,5.782,10.68,1.845,0,6.284,13.57,14.14,99.0455,3.31,3.311,3.31,100,0,0.08,0.101,233.9,123.1,122.7
"2022-01-09 01:08:00",2756897,9.119333,308.436,12.17799,1.676983,13.36,0,8.384667,305.7628,9.727606,1.388716,11.21,0,-999,0,5.88,92.2,6.079,5.816,9.35,1.572,0,6.289,13.56,11.95,99.03576,3.309,3.311,3.309,100,0.113,0.1,0.058,233.9,123.2,122.7
"2022-01-09 01:09:00",2756898,7.215334,320.535,4.687919,1.065695,9.16,0,6.307334,314.8668,4.513339,0.571658,7.79,0,-999,0,5.9,91.2,6.074,5.816,8.41,0.71,0,6.308,13.56,9.51,99.0421,3.309,3.309,3.309,100,0,0.02,0.065,234,123.2,122.8
"2022-01-09 01:10:00",2756899,6.956,314.9981,5.998606,1.283063,8.75,0,6.153334,317.3181,8.945614,0.7427936,7.53,0,-999,0,5.9,91.5,6.051,5.819,7.808,0.795,0,6.308,13.56,10.2,99.04444,3.309,3.309,3.309,100,0,0.1,0.102,234.1,123.3,122.9
"2022-01-09 01:11:00",2756900,7.510001,314.4564,5.777849,0.9717886,8.72,0,6.255333,309.8659,5.510905,0.5937548,7.23,0,-999,0,5.9,91.8,6.078,5.825,8.06,0.448,0,6.309,13.57,8.89,99.0381,3.308,3.309,3.308,100,0,0.1,0.091,234.2,123.4,123
"2022-01-09 01:12:00",2756901,7.973334,316.6807,5.48909,0.8325436,9.55,0,7.297334,313.1422,5.092157,0.9624445,9.83,0,-999,0,5.9,91.3,6.052,5.818,10.27,1.503,0,6.329,13.57,13.7,99.04068,3.308,3.308,3.308,100,0,0.09,0.091,234.3,123.4,123.1
"2022-01-09 01:13:00",2756902,7.858666,319.867,5.793508,1.073237,9.22,0,6.07,317.9335,2.644606,0.8123628,7.82,0,-999,0,5.9,90.9,6.083,5.808,8.78,0.578,0,6.337,13.57,9.89,99.04045,3.308,3.308,3.308,100,0,0.09,0.093,234.4,123.5,123.2
"2022-01-09 01:14:00",2756903,9.991332,308.2165,9.168529,1.962556,13.4,0,8.327333,310.2729,6.377533,1.696099,11.09,0,-999,0,5.9,90.7,6.121,5.823,10.2,1.379,0,6.351,13.56,12.26,99.032,3.307,3.308,3.307,100,0,0.07,0.07,234.5,123.6,123.2
"2022-01-09 01:15:00",2756904,11.248,314.5993,3.843178,0.5991906,12.51,0,8.770666,317.8671,3.441924,1.024269,10.31,0,-999,0,6,89.4,6.223,5.832,10.23,0.837,0,6.351,13.56,11.58,99.03529,3.307,3.307,3.307,100,0,0.06,0.063,234.5,123.6,123.3
"2022-01-09 01:16:00",2756905,9.693333,316.1452,6.360183,1.264424,11.53,0,7.969334,315.2017,5.074832,0.9618834,9.54,0,-999,0,6.067,88.3,6.283,5.831,10.55,0.776,0,6.364,13.56,12.08,99.03975,3.306,3.307,3.306,100,0,0.09,0.084,234.6,123.6,123.4
"2022-01-09 01:17:00",2756906,11.13267,315.4674,3.518589,1.262735,12.94,0,8.106,319.9988,2.682642,0.8523989,9.99,0,-999,0,6.1,87.7,6.361,5.847,8.47,0.832,0,6.373,13.56,9.83,99.04186,3.305,3.307,3.305,100,0,0.04,0.04,234.6,123.6,123.4
"2022-01-09 01:18:00",2756907,9.080667,312.4656,3.382973,1.335647,11.53,0,7.676666,314.4664,2.728925,0.8688281,9.01,0,-999,0,6.193,87.2,6.403,5.889,8.82,0.789,0,6.378,13.56,10.83,99.03493,3.305,3.306,3.305,100,0,0.07,0.071,234.7,123.6,123.5
"2022-01-09 01:19:00",2756908,9.781332,315.4012,4.378045,1.110248,12.1,0,7.424,313.4653,4.785503,1.471044,10.39,0,-999,0,6.2,87.2,6.395,5.911,11,0.902,0,6.396,13.56,12.26,99.03388,3.305,3.306,3.305,100,0,0.08,0.083,234.8,123.7,123.6
"2022-01-09 01:20:00",2756909,8.067333,316.4,3.737378,0.9261639,9.83,0,7.446,311.3967,4.436434,0.8663394,8.74,0,-999,0,6.16,87.3,6.324,5.918,9.94,0.444,0,6.396,13.56,10.83,99.03905,3.305,3.305,3.305,100,0,0,0.003,234.8,123.7,123.6
"2022-01-09 01:21:00",2756910,7.345334,321.0619,6.056315,0.9517762,9.07,0,6.253334,315.8786,5.541495,0.9128465,7.73,0,-999,0,6.1,88,6.247,5.898,9.09,0.82,0,6.396,13.56,10.83,99.03822,3.305,3.305,3.305,100,0,0.05,0.045,234.8,123.7,123.6
"2022-01-09 01:22:00",2756911,8.023999,317.9989,5.316047,0.8988275,9.39,0,6.660666,317.0666,4.639373,1.07048,8.57,0,-999,0,6.06,88.7,6.173,5.888,8.83,0.723,0,6.411,13.55,10.33,99.05442,3.305,3.305,3.305,100,0,0,0.002,234.8,123.7,123.6
"2022-01-09 01:23:00",2756912,8.404667,319.2681,5.776109,1.049716,11.19,0,6.539999,320.875,6.213879,0.7862061,7.76,0,-999,0,6.06,88.6,6.212,5.92,7.95,0.627,0,6.416,13.55,9.2,99.05981,3.305,3.306,3.305,100,0,0.03,0.033,234.9,123.7,123.6
"2022-01-09 01:24:00",2756913,8.566,313.6665,3.943548,0.9823496,10.47,0,7.42,314.4,4.600606,0.6546347,8.91,0,-999,0,6.113,88,6.285,5.989,10.69,0.983,0,6.416,13.56,12.64,99.06322,3.305,3.306,3.305,100,0,0,0,234.9,123.7,123.7
"2022-01-09 01:25:00",2756914,8.679334,311.6632,3.587862,1.076832,10.19,0,6.828667,314.0722,5.166638,0.8975141,8.72,0,-999,0,6.187,88.2,6.321,6.038,9.46,0.633,0,6.433,13.56,10.33,99.0638,3.305,3.306,3.305,100,0,0.03,0.024,234.9,123.7,123.7
"2022-01-09 01:26:00",2756915,8.989333,312.7987,3.289225,0.8465498,10.49,0,7.048666,311.0005,4.603831,0.9620665,9.99,0,-999,0,6.2,88.2,6.367,6.113,8.03,0.506,0,6.439,13.55,8.89,99.05301,3.305,3.305,3.305,100,0,0,0,234.9,123.7,123.7
"2022-01-09 01:27:00",2756916,8.621333,313.3268,5.444262,0.5066606,9.54,0,6.162,311.4761,6.904111,0.6354231,7.6,0,-999,0,6.2,88.5,6.36,6.134,8.45,0.721,0,6.44,13.56,9.64,99.06428,3.305,3.305,3.305,100,0,0,0,234.9,123.7,123.7
"2022-01-09 01:28:00",2756917,8.440001,312.9326,4.432955,0.7915975,10.12,0,5.596,308.0009,3.63273,0.7396467,7.08,0,-999,0,6.28,88.4,6.411,6.176,8.2,0.631,0,6.46,13.55,9.2,99.07554,3.305,3.305,3.305,100,0,0.02,0.02,234.9,123.7,123.7
"2022-01-09 01:29:00",2756918,7.572,311.6686,4.767964,0.81275,8.52,0,4.704,310.6618,4.626621,0.4407085,5.44,0,-999,0,6.267,88.8,6.374,6.197,7.671,0.799,0,6.461,13.55,9.08,99.07777,3.305,3.306,3.305,100,0,0,0,234.9,123.7,123.7
"2022-01-09 01:30:00",2756919,6.208666,308.1999,5.865757,0.76384,7.4,0,5.389333,310.333,4.252401,0.6000718,6.23,0,-999,0,6.227,89.7,6.346,6.185,7.479,0.514,0,6.475,13.54,8.58,99.07742,3.305,3.305,3.305,100,0,0,0,234.9,123.7,123.7
"2022-01-09 01:31:00",2756920,7.654666,306.798,3.368765,0.6554781,8.74,0,4.904,305.2635,3.870638,0.4685837,6.25,0,-999,0,6.273,89.9,6.349,6.207,7.262,0.78,0,6.482,13.56,8.39,99.07836,3.305,3.305,3.305,100,0,0,0,234.9,123.7,123.7
"2022-01-09 01:32:00",2756921,7.651334,304.934,2.567878,0.7868068,9.12,0,5.226667,306.3319,3.398678,0.6581252,6.38,0,-999,0,6.22,89.8,6.34,6.211,6.133,0.512,0,6.482,13.56,6.888,99.08857,3.305,3.305,3.305,100,0,0.02,0.021,234.9,123.7,123.7
"2022-01-09 01:33:00",2756922,6.168,296.8641,4.687102,0.9665415,8.24,0,4.949334,299.7344,3.677614,0.8407018,6.29,0,-999,0,6.2,90.1,6.317,6.223,7.187,0.776,0,6.492,13.56,8.01,99.09138,3.305,3.305,3.305,100,0,0,0,234.9,123.8,123.7
"2022-01-09 01:34:00",2756923,6.206666,299.4732,6.265451,0.8020446,7.42,0,5.424666,300.0016,5.884052,0.6767261,6.56,0,-999,0,6.2,91.1,6.31,6.24,6.783,0.689,0,6.504,13.56,8.39,99.09901,3.306,3.306,3.305,100,0,0,0,234.9,123.8,123.7
"2022-01-09 01:35:00",2756924,5.828001,296.6023,4.686137,0.3728843,6.55,0,4.918666,296.2733,5.218502,0.5382672,6.04,0,-999,0,6.2,91.5,6.253,6.209,7.483,0.47,0,6.512,13.55,8.14,99.10019,3.306,3.306,3.305,100,0,0,0,234.9,123.8,123.7
"2022-01-09 01:36:00",2756925,7.48,298.8656,5.759804,0.8936964,9.06,0,5.160001,301.4683,5.6302,1.155162,7.08,0,-999,0,6.2,91.3,6.258,6.236,6.692,0.523,0,6.524,13.57,7.825,99.101,3.306,3.306,3.305,100,0,0.03,0.032,235,123.8,123.7
"2022-01-09 01:37:00",2756926,6.477333,298.6676,4.599153,0.5535516,7.53,0,5.164667,298.801,5.887989,0.6772974,6.49,0,-999,0,6.2,90.7,6.315,6.278,6.058,0.467,0,6.524,13.56,6.763,99.10078,3.305,3.306,3.305,100,0,0,0,235,123.8,123.8
"2022-01-09 01:38:00",2756927,8.092666,295.8103,5.874845,0.9234606,9.48,0,5.658,295.4726,10.07642,0.7347489,6.88,0,-999,0,6.24,90.8,6.34,6.326,7.687,0.692,0,6.54,13.56,9.2,99.09162,3.305,3.305,3.305,100,0,0,0,235,123.8,123.8
"2022-01-09 01:39:00",2756928,6.795333,297.7281,6.510805,0.704385,8.46,0,5.893333,296.7994,7.184262,1.118431,8.33,0,-999,0,6.3,90.6,6.376,6.364,6.633,0.716,0,6.547,13.58,7.7,99.09795,3.305,3.305,3.305,100,0,0,0,235,123.8,123.8
"2022-01-09 01:40:00",2756929,7.708667,294.4653,4.909868,1.438768,10.45,0,5.297333,296.2225,10.12983,0.9368562,7.22,0,-999,0,6.3,91.2,6.374,6.38,7.796,1.011,0,6.561,13.58,9.14,99.11204,3.305,3.305,3.304,100,0,0.02,0.02,235,123.8,123.8
"2022-01-09 01:41:00",2756930,8.162001,295.8673,7.160947,1.195024,10.38,0,6.699333,297.1339,2.55211,0.666588,7.78,0,-999,0,6.3,91.2,6.404,6.378,7.567,0.858,0,6.57,13.57,8.7,99.11063,3.304,3.304,3.304,100,0,0,0,235,123.8,123.8
"2022-01-09 01:42:00",2756931,7.107333,297.8657,7.778293,0.9787371,9.36,0,6.030666,296.9399,6.274709,0.9438818,7.66,0,-999,0,6.3,91.2,6.411,6.412,7.579,0.57,0,6.57,13.57,8.89,99.11356,3.304,3.305,3.304,100,0,0.02,0.021,235,123.9,123.8